GW1707 Weather Reports


Display with metric or nautical units.
time (UTC)temp
F
wind
direction
speed
MPH
gust
MPH
rain 1hr
in
rain 24hr
in
rain mn
in
humidity
%
barometer
mb
20260509111600 51 0 0.0 0.0 0.00 0.10 0.07 98 1030.8
20260509110052 51 0 0.0 0.0 0.00 0.10 0.07 98 1030.9
20260509104559 51 0 0.0 0.0 0.00 0.10 0.07 98 1030.9
20260509103059 51 0 0.0 0.0 0.00 0.10 0.07 98 1030.9
20260509101551 51 0 0.0 0.0 0.00 0.10 0.07 98 1031.0
20260509100108 51 0 0.0 0.0 0.00 0.10 0.07 98 1031.0
20260509094556 51 0 0.0 0.0 0.00 0.10 0.07 98 1031.1
20260509093101 52 0 0.0 0.0 0.00 0.10 0.07 98 1031.0
20260509091603 52 0 0.0 0.0 0.00 0.10 0.07 98 1030.9
20260509090054 52 0 0.0 0.0 0.00 0.10 0.07 98 1031.1
20260509084553 51 0 0.0 0.0 0.00 0.10 0.07 98 1031.0
20260509083056 52 0 0.0 0.0 0.00 0.10 0.07 98 1030.9
20260509081558 52 0 0.0 0.0 0.00 0.10 0.07 98 1030.8
20260509080057 52 0 0.0 0.0 0.00 0.10 0.07 98 1030.7
20260509074555 52 0 0.0 0.0 0.00 0.10 0.07 98 1030.6
20260509073104 53 0 0.0 0.0 0.00 0.10 0.07 98 1030.6
20260509071557 53 0 0.0 0.0 0.00 0.10 0.07 98 1030.4
20260509070059 53 0 0.0 0.0 0.00 0.10 0.07 98 1030.3
20260509064557 53 0 0.0 0.0 0.00 0.10 0.07 98 1030.3
20260509063104 53 0 0.0 0.0 0.00 0.10 0.07 98 1030.2
20260509061611 54 0 0.0 0.0 0.00 0.09 0.07 98 1030.2
20260509060058 54 0 0.0 0.0 0.00 0.09 0.07 98 1030.2
20260509054605 54 0 0.0 0.0 0.00 0.09 0.07 98 1030.3
20260509053101 55 0 0.0 0.0 0.00 0.09 0.07 98 1030.3
20260509051556 55 0 0.0 0.0 0.00 0.09 0.07 98 1030.3
20260509050057 55 0 0.0 0.0 0.00 0.08 0.06 98 1030.3
20260509044557 55 0 0.0 0.0 0.00 0.08 0.06 98 1030.3
20260509043101 54 0 0.0 0.0 0.00 0.08 0.06 98 1030.2
20260509041556 55 0 0.0 0.0 0.01 0.08 0.06 98 1030.3
20260509040057 55 0 0.0 0.0 0.01 0.08 0.06 98 1030.3
20260509034559 55 0 0.0 0.0 0.01 0.08 0.06 98 1030.4
20260509033056 55 0 0.0 0.0 0.01 0.08 0.06 98 1030.7
20260509031555 56 0 0.0 0.0 0.00 0.07 0.04 98 1030.8
20260509030052 56 0 0.0 0.0 0.00 0.07 0.04 98 1031.1
20260509024553 56 0 0.0 0.0 0.00 0.07 0.04 98 1031.2
20260509023050 55 0 0.0 0.0 0.00 0.07 0.04 98 1031.6
20260509021555 56 0 0.0 0.0 0.00 0.09 0.04 98 1032.0
20260509020053 55 0 0.0 0.0 0.00 0.09 0.04 98 1032.1
20260509014554 55 0 0.0 0.0 0.00 0.09 0.04 98 1032.2
20260509013051 55 0 0.0 0.0 0.01 0.09 0.04 98 1032.3
20260509011553 54 0 0.0 0.0 0.01 0.09 0.04 98 1032.3
20260509010054 54 0 0.0 0.0 0.01 0.09 0.04 98 1032.3
20260509004554 54 0 0.0 0.0 0.02 0.09 0.04 98 1032.3
20260509003106 54 0 0.0 0.0 0.00 0.07 0.03 98 1032.4
20260509001556 54 0 0.0 0.0 0.00 0.07 0.03 98 1032.4
20260509000056 53 0 0.0 0.0 0.00 0.07 0.03 98 1032.3
20260508234557 53 0 0.0 0.0 0.00 0.07 0.02 98 1032.3
20260508233105 53 0 0.0 0.0 0.00 0.07 0.02 98 1032.4
20260508231634 53 0 0.0 0.0 0.00 0.07 0.02 98 1032.3
20260508224608 52 0 0.0 0.0 0.00 0.07 0.02 98 1032.0
20260508223054 52 0 0.0 0.0 0.00 0.07 0.02 98 1031.9
20260508221555 52 0 0.0 0.0 0.00 0.07 0.02 98 1031.8
20260508214624 51 0 0.0 0.0 0.00 0.07 0.02 98 1031.4
20260508213053 52 0 0.0 0.0 0.00 0.06 0.01 98 1031.3
20260508211556 51 0 0.0 0.0 0.00 0.06 0.01 98 1031.2
20260508210057 51 0 0.0 0.0 0.00 0.06 0.01 98 1031.2
20260508204555 51 0 0.0 0.0 0.00 0.06 0.01 98 1031.1
20260508203115 51 0 0.0 0.0 0.00 0.06 0.01 98 1031.0
20260508201558 51 0 0.0 0.0 0.00 0.06 0.01 98 1030.9
20260508200103 51 0 0.0 0.0 0.00 0.06 0.01 98 1030.9
20260508194557 51 0 0.0 0.0 0.00 0.05 0.00 98 1030.7
20260508193137 51 0 0.0 0.0 0.00 0.05 0.00 98 1030.7
20260508191559 51 0 0.0 0.0 0.00 0.05 0.00 98 1030.5
20260508190057 51 0 0.0 0.0 0.00 0.05 0.00 98 1030.5
20260508184559 51 0 0.0 0.0 0.00 0.05 0.00 98 1030.5
20260508183102 51 0 0.0 0.0 0.00 0.05 0.00 98 1030.5
20260508181557 51 0 0.0 0.0 0.00 0.05 0.00 98 1030.6
20260508180114 51 0 0.0 0.0 0.00 0.04 0.00 98 1030.7
20260508174611 51 0 0.0 0.0 0.00 0.04 0.00 98 1030.8
20260508173057 51 0 0.0 0.0 0.00 0.04 0.00 98 1030.9
20260508171555 51 0 0.0 0.0 0.00 0.04 0.00 98 1030.9
20260508170056 51 0 0.0 0.0 0.00 0.04 0.00 98 1030.8
20260508164607 51 0 0.0 0.0 0.00 0.04 0.00 98 1030.8
20260508163054 51 0 0.0 0.0 0.00 0.04 0.00 98 1030.9
20260508161553 51 0 0.0 0.0 0.00 0.04 0.00 98 1030.8
20260508160055 51 0 0.0 0.0 0.00 0.04 0.00 98 1031.0
20260508154554 51 0 0.0 0.0 0.00 0.04 0.00 97 1031.1
20260508153054 51 0 0.0 0.0 0.00 0.04 0.00 97 1031.2
20260508151557 51 0 0.0 0.0 0.00 0.04 0.00 97 1031.2
20260508150056 51 0 0.0 0.0 0.00 0.04 0.00 97 1031.3
20260508144552 51 0 0.0 0.0 0.00 0.04 0.00 97 1031.4
20260508143059 51 0 0.0 0.0 0.00 0.04 0.00 97 1031.5
20260508141554 51 0 0.0 0.0 0.00 0.04 0.04 97 1031.6
20260508140106 51 0 0.0 0.0 0.00 0.04 0.04 97 1031.6
20260508134604 51 0 0.0 0.0 0.00 0.03 0.03 97 1031.8
20260508133054 51 0 0.0 0.0 0.00 0.03 0.03 97 1032.0
20260508131554 51 0 0.0 0.0 0.00 0.03 0.03 97 1032.1
20260508130057 51 0 0.0 0.0 0.00 0.03 0.03 97 1032.2
20260508124555 51 0 0.0 0.0 0.00 0.03 0.03 97 1032.3
20260508123054 51 0 0.0 0.0 0.00 0.03 0.03 97 1032.3
20260508121554 51 0 0.0 0.0 0.00 0.03 0.03 96 1032.2
20260508120059 51 0 0.0 0.0 0.01 0.03 0.03 96 1032.3
20260508114608 51 0 0.0 0.0 0.00 0.03 0.03 96 1032.4
20260508113105 51 0 0.0 0.0 0.00 0.03 0.03 96 1032.2
20260508111610 51 0 0.0 0.0 0.00 0.03 0.03 96 1032.2